Regional Weather Roundup
Issued by NWS Raleigh/Durham, NC

Home | Current Version | Previous Version | Text Only | Print | Product List | Glossary On
Versions: 1 2 3 4 5 6 7 8 9 10 11 12 13 14 15 16 17 18 19 20 21 22 23 24 25 26 27 28 29 30 31 32 33 34 35 36 37 38 39 40 41 42 43 44 45 46 47 48 49 50
000
ASUS42 KRAH 012210
RWRRAH
NORTH CAROLINA WEATHER ROUNDUP
NATIONAL WEATHER SERVICE RALEIGH NC
600 PM EDT TUE SEP 01 2015

NOTE: "FAIR" INDICATES FEW OR NO CLOUDS BELOW 12,000 FEET WITH NO
SIGNIFICANT WEATHER AND/OR OBSTRUCTIONS TO VISIBILITY.

NCZ001-053-055-056-065-067-012300-
WESTERN NORTH CAROLINA

CITY           SKY/WX    TMP DP  RH WIND       PRES   REMARKS
ASHEVILLE      MOSUNNY   83  62  49 SW6       30.15S
JEFFERSON      PTSUNNY   77  56  49 CALM      30.22R
MORGANTON      PTSUNNY   89  58  35 CALM      30.13F
HICKORY        SUNNY     87  61  41 CALM      30.08S
RUTHERFORDTON  PTSUNNY   89  64  43 E6        30.09S
MOUNT AIRY     MOSUNNY   88  67  50 S3        30.11S
BOONE          LGT RAIN  73  65  74 N5        30.23S
$$

NCZ021-022-025-041-071-084-088-012300-
CENTRAL NORTH CAROLINA

CITY           SKY/WX    TMP DP  RH WIND       PRES   REMARKS
CHARLOTTE      MOSUNNY   90  60  36 N3        30.07S
GREENSBORO     PTSUNNY   90  59  35 N3        30.06F
WINSTON-SALEM  SUNNY     87  62  43 CALM      30.08F
RALEIGH-DURHAM PTSUNNY   90  65  43 E3        30.05S
FORT BRAGG     SUNNY     87  66  49 CALM      30.04S
FAYETTEVILLE   SUNNY     88  67  49 CALM      30.04S
BURLINGTON     MOSUNNY   86  69  56 SE3       30.05S
LAURINBURG     PTSUNNY   89  66  46 E5        30.05S
$$

NCZ011-015-027-028-043-044-047-080-103-012300-
NORTHEASTERN NORTH CAROLINA

CITY           SKY/WX    TMP DP  RH WIND       PRES   REMARKS
ROCKY MT-WILSO SUNNY     89  68  49 N3        30.04S
GREENVILLE     PTSUNNY   86  70  58 E3        30.06S
WASHINGTON     SUNNY     83  71  64 CALM      30.04S
ELIZABETH CITY MOSUNNY   83  74  74 E7        30.03S
MANTEO         SUNNY     81  72  75 CALM      30.04S
CAPE HATTERAS  MOSUNNY   82  73  74 NE6       30.04S
$$

NCZ078-087-090-091-093-098-101-012300-
SOUTHEASTERN NORTH CAROLINA

CITY           SKY/WX    TMP DP  RH WIND       PRES   REMARKS
LUMBERTON      MOSUNNY   91  69  48 W3        30.04S HX  96
GOLDSBORO      SUNNY     88  71  56 E5        30.03S
KINSTON        SUNNY     86  68  54 CALM      30.05S
KENANSVILLE      N/A     85  67  54 CALM      30.06R
NEW BERN       SUNNY     85  71  63 VRB3      30.05S
CHERRY POINT   MOSUNNY   86  69  56 NW6       30.04F
BEAUFORT       PTSUNNY   80  75  84 SW13      30.04S
JACKSONVILLE   SUNNY     85  69  58 W3        30.04S
WILMINGTON     SUNNY     83  73  72 SE5       30.05S
$$




USA.gov is the U.S. government's official web portal to all federal, state and local government web resources and services.